Regional Weather Roundup
Issued by NWS

Home | Current Version | Previous Version | Graphics & Text | Print | Product List | Glossary On
Versions: 1 2 3 4 5 6 7 8 9 10 11 12 13 14 15 16 17 18 19 20 21 22 23 24 25 26 27 28 29 30 31 32 33 34 35 36 37 38 39 40 41 42 43 44 45 46 47 48 49 50
000
ASUS43 KLMK 280702
RWRKY
KENTUCKY REGIONAL WEATHER ROUNDUP
NATIONAL WEATHER SERVICE LOUISVILLE KY
300 AM EDT SAT MAR 28 2015

NOTE "FAIR" INDICATES FEW OR NO CLOUDS BELOW 12,000 FEET
WITH NO SIGNIFICANT WEATHER AND/OR OBSTRUCTIONS TO VISIBILITY.

KYZ001>023-026-027-061>063-070>075-280800-
WESTERN AND SOUTH CENTRAL KENTUCKY

CITY           SKY/WX    TMP DP  RH WIND       PRES   REMARKS
PADUCAH        CLEAR     31  20  63 CALM      30.19S
HENDERSON      CLEAR     30  18  59 N5        30.20R WCI  25
OWENSBORO      CLEAR     29  19  66 N3        30.20R
HOPKINSVILLE   CLEAR     30  20  68 N8        30.17R WCI  22
BOWLING GREEN  CLEAR     30  19  63 NW3       30.16S
GLASGOW        NOT AVBL
$$

KYZ024-025-028>034-038-045-046-053-280800-
NORTH CENTRAL KENTUCKY

CITY           SKY/WX    TMP DP  RH WIND       PRES   REMARKS
LOUISVILLE/SDF PTCLDY    27  16  63 N10       30.16S WCI  17
LOUISVILLE/LOU CLEAR     27  16  63 NW6       30.16S WCI  20
FORT KNOX      FAIR      26  11  52 NW8       30.13S WCI  18
$$

KYZ035>037-039>044-047>052-055>060-089>105-280800-
NORTHEAST KENTUCKY

CITY           SKY/WX    TMP DP  RH WIND       PRES   REMARKS
LEXINGTON      CLOUDY    24  16  71 NW5       30.11R WCI  18
COVINGTON      CLEAR     24  12  60 N13       30.12R WCI  12
FRANKFORT      CLEAR     26  13  57 N6        30.12R WCI  19
$$

KYZ054-064>069-076>088-106>120-280800-
SOUTHEAST KENTUCKY

CITY           SKY/WX    TMP DP  RH WIND       PRES   REMARKS
JACKSON        MOCLDY    27  12  53 VRB5      30.04S WCI  22
LONDON         CLOUDY    30  14  51 N6        30.07S WCI  24
SOMERSET       NOT AVBL
MIDDLESBORO    NOT AVBL
MONTICELLO     FLURRIES  32  21  64 NW10      30.13R WCI  24
$$




USA.gov is the U.S. government's official web portal to all federal, state and local government web resources and services.